Temp
20 23 21 20 20 20 20 20 21 21 19 19 20 21 21 20 20 20 20 19 19 18 17 17 18 18 17 17 16 15 14 15 14 13 13 13 12 12 11 11 12 12 11 11
22 20 19 19 19 19 20 20 20 20 18 19 21 21 21 20 19 19 20 19 19 18 17 16 15 15 14 14 14 14 14 14 14 13 13 12 12 11 12 11 12 11 11 11
21 19 18 19 19 19 19 19 18 18 19 19 20 21 21 20 19 19 18 18 18 18 17 16 15 14 15 15 14 14 14 13 13 12 10 10 10 10 10 10 10 11 10 10
19 18 18 19 18 18 19 18 17 18 19 21 19 21 20 20 20 19 18 17 17 16 16 15 14 13 14 14 14 13 12 11 11 11 10 10 9 9 9 8 8 9 9 9
17 18 18 18 17 17 18 16 17 17 19 19 20 21 20 20 19 19 18 16 16 15 14 13 12 12 11 11 11 10 10 10 11 10 10 9 8 7 7 7 6 7 7 7
18 17 18 18 17 17 17 17 17 18 19 18 18 19 19 19 17 18 17 15 14 14 13 12 11 11 10 10 10 11 10 9 10 9 9 9 7 6 6 6 6 6 6 5
18 18 18 17 18 18 19 18 18 17 18 18 16 18 17 17 17 17 16 15 14 13 12 12 12 12 10 10 11 11 11 9 8 9 9 8 8 6 6 5 5 4 4 4
18 17 17 16 16 17 17 17 16 15 16 17 17 18 18 17 16 15 14 13 13 13 12 12 12 11 10 10 11 11 10 8 8 8 7 7 6 5 4 4 3 3 3 3
16 17 16 16 16 16 17 16 15 14 9 14 17 17 17 17 17 16 15 14 13 13 12 12 11 11 10 9 8 9 9 9 8 7 6 6 4 4 4 4 3 2 2 1
15 16 15 16 16 16 17 16 16 16 13 14 18 18 18 16 17 16 15 14 14 13 13 12 12 11 9 9 8 8 8 7 6 5 5 4 4 3 3 1 1 0 0 -0
15 15 16 15 16 16 16 16 15 15 14 14 13 17 17 16 16 16 15 14 13 13 12 11 11 10 9 8 7 7 6 6 5 4 4 3 2 1 1 0 -1 -1 -1 -1
14 14 15 15 14 14 15 15 15 14 13 13 12 14 16 16 15 14 14 13 12 11 11 11 10 9 8 7 6 6 5 4 5 4 2 2 1 0 -0 -1 -1 -1 -2 -2
14 14 15 15 15 15 15 15 14 13 12 12 11 14 16 15 15 15 13 12 12 11 11 10 10 8 7 6 5 5 5 4 2 2 2 1 0 -0 -1 -2 -2 -2 -3 -3
12 14 14 15 15 14 14 14 14 13 11 13 13 14 16 16 15 14 13 11 11 11 10 9 7 7 5 5 5 4 3 2 2 1 1 1 -0 -2 -2 -2 -3 -3 -3 -3
13 13 13 14 14 14 13 13 14 13 13 12 13 14 15 15 14 12 11 11 10 10 8 7 6 5 4 4 4 3 2 2 2 1 -0 -1 -2 -2 -2 -2 -3 -3 -3 -4
12 12 10 11 12 13 12 13 13 13 13 13 13 13 14 12 11 11 10 10 9 7 6 4 4 4 4 4 3 2 2 1 0 -0 -1 -2 -2 -2 -3 -3 -3 -4 -4 -4
11 10 9 10 9 10 9 12 13 14 13 13 12 13 12 12 11 10 9 8 6 4 3 4 3 4 4 3 2 2 2 1 -0 -1 -2 -2 -2 -3 -3 -3 -4 -4 -4 -5
6 9 7 8 8 10 13 14 13 13 13 14 13 12 11 11 10 10 6 4 2 2 2 3 4 4 3 3 3 2 1 1 -0 -1 -2 -2 -3 -3 -3 -4 -4 -5 -5 -5
9 8 6 7 9 11 12 13 12 12 12 12 12 11 10 9 9 8 3 2 2 2 2 3 3 3 3 3 2 1 1 0 -1 -1 -2 -3 -3 -4 -4 -4 -5 -5 -5 -6
7 7 8 7 7 9 13 12 10 11 11 10 8 6 6 8 7 5 3 2 2 3 3 3 3 3 3 2 1 1 1 0 -1 -2 -3 -3 -4 -4 -4 -5 -5 -5 -6 -6
6 5 7 7 7 9 12 10 9 8 9 7 5 5 5 5 3 2 1 2 3 3 3 3 3 3 2 2 1 0 0 -1 -1 -2 -3 -3 -4 -4 -5 -5 -5 -6 -6 -7
10 9 7 6 6 7 9 10 7 9 7 5 4 4 4 3 2 2 3 3 3 3 3 3 2 2 1 1 1 0 -0 -1 -2 -2 -3 -4 -4 -5 -5 -5 -5 -6 -6 -8
10 11 11 9 10 12 11 9 7 6 5 5 4 4 3 3 3 3 3 3 3 3 2 2 1 0 1 1 0 -0 -0 -1 -3 -3 -3 -4 -4 -5 -5 -5 -6 -7 -7 -9
11 10 9 8 10 11 9 9 6 5 4 4 3 3 2 3 3 3 3 3 2 2 1 0 -0 -0 -0 -0 -1 -2 -2 -3 -4 -4 -4 -4 -5 -5 -6 -6 -7 -7 -8 -9
11 10 9 9 9 9 9 6 4 4 3 3 3 3 3 3 3 3 2 2 1 1 0 -1 -1 -1 -1 -1 -2 -3 -4 -5 -4 -4 -4 -5 -6 -6 -6 -7 -7 -9 -9 -10
10 11 7 6 7 7 6 4 3 3 3 3 2 3 3 2 2 2 1 1 0 -0 -1 -1 -1 -2 -2 -3 -3 -5 -6 -5 -5 -4 -5 -6 -6 -7 -7 -7 -8 -9 -10 -11
Height
1528 1525 1532 1535 1534 1534 1534 1534 1534 1532 1538 1538 1534 1530 1531 1531 1529 1530 1530 1531 1534 1538 1542 1544 1546 1546 1547 1549 1551 1555 1554 1554 1555 1556 1555 1556 1554 1552 1551 1549 1546 1544 1542 1540
1528 1538 1540 1541 1538 1536 1535 1534 1535 1537 1540 1538 1531 1529 1532 1534 1535 1534 1533 1534 1537 1540 1543 1544 1544 1545 1547 1548 1550 1551 1551 1551 1552 1552 1551 1551 1550 1548 1547 1545 1544 1540 1537 1534
1531 1542 1542 1539 1536 1535 1537 1536 1540 1541 1537 1536 1533 1530 1532 1536 1537 1538 1539 1540 1541 1542 1544 1546 1546 1546 1547 1548 1549 1550 1550 1550 1550 1550 1550 1550 1548 1546 1544 1540 1537 1535 1531 1528
1539 1544 1541 1538 1541 1540 1538 1542 1543 1541 1538 1528 1532 1526 1535 1534 1537 1540 1542 1543 1545 1546 1547 1548 1549 1548 1548 1548 1548 1548 1549 1549 1548 1548 1547 1544 1543 1541 1537 1534 1532 1528 1524 1521
1545 1542 1540 1540 1544 1543 1542 1544 1541 1539 1534 1533 1530 1526 1532 1533 1537 1540 1544 1547 1548 1549 1549 1549 1549 1548 1548 1548 1548 1549 1550 1548 1546 1545 1542 1541 1539 1536 1532 1531 1526 1523 1519 1514
1542 1545 1544 1545 1544 1545 1544 1542 1540 1538 1534 1540 1540 1537 1533 1536 1543 1543 1547 1549 1549 1549 1549 1549 1549 1550 1550 1549 1550 1549 1549 1547 1544 1541 1539 1537 1535 1532 1528 1525 1521 1517 1512 1508
1542 1545 1546 1548 1541 1542 1538 1536 1538 1546 1543 1541 1545 1539 1540 1545 1546 1547 1548 1549 1550 1550 1550 1551 1551 1552 1551 1549 1548 1547 1545 1544 1541 1538 1537 1534 1530 1527 1525 1520 1515 1510 1505 1500
1545 1549 1549 1551 1549 1548 1545 1543 1550 1558 1552 1545 1540 1538 1535 1545 1548 1549 1550 1551 1551 1551 1552 1552 1552 1552 1550 1547 1546 1545 1542 1540 1538 1535 1532 1529 1525 1522 1519 1514 1509 1504 1498 1493
1550 1551 1552 1554 1552 1551 1547 1551 1555 1561 1579 1560 1539 1539 1541 1544 1546 1548 1550 1551 1551 1552 1552 1552 1551 1550 1547 1545 1542 1539 1537 1536 1534 1530 1527 1523 1520 1516 1512 1508 1503 1498 1493 1489
1557 1554 1554 1553 1553 1552 1547 1554 1552 1552 1567 1563 1536 1535 1533 1542 1542 1548 1548 1550 1550 1550 1550 1550 1549 1548 1545 1542 1539 1536 1534 1532 1529 1526 1522 1519 1516 1512 1507 1502 1498 1494 1490 1486
1557 1556 1555 1554 1551 1550 1551 1551 1555 1554 1559 1562 1561 1539 1536 1541 1545 1546 1548 1549 1549 1549 1549 1549 1547 1544 1542 1539 1537 1534 1531 1528 1525 1522 1519 1515 1510 1506 1502 1498 1493 1490 1486 1483
1561 1558 1556 1554 1556 1556 1553 1553 1553 1561 1564 1563 1567 1551 1540 1542 1546 1548 1546 1546 1547 1549 1547 1545 1543 1541 1539 1537 1534 1530 1527 1525 1520 1516 1513 1510 1506 1503 1499 1495 1491 1487 1484 1480
1560 1559 1557 1554 1557 1556 1553 1555 1558 1562 1566 1565 1569 1547 1540 1543 1542 1543 1545 1546 1546 1546 1544 1541 1539 1538 1536 1533 1529 1527 1524 1521 1517 1513 1509 1505 1501 1499 1494 1491 1488 1485 1480 1476
1562 1559 1559 1555 1553 1555 1557 1556 1557 1558 1564 1555 1549 1541 1537 1538 1541 1542 1544 1545 1544 1543 1540 1539 1537 1535 1531 1527 1524 1521 1519 1515 1512 1509 1505 1501 1498 1494 1490 1487 1483 1481 1479 1475
1561 1561 1560 1558 1555 1553 1556 1555 1553 1552 1552 1557 1546 1541 1539 1540 1542 1543 1543 1543 1542 1540 1539 1537 1534 1530 1527 1524 1521 1518 1515 1511 1508 1504 1501 1496 1493 1491 1489 1487 1482 1479 1476 1472
1565 1563 1568 1564 1558 1553 1554 1548 1546 1547 1545 1546 1545 1543 1542 1544 1545 1544 1543 1541 1539 1538 1537 1534 1530 1526 1524 1521 1518 1514 1511 1507 1502 1499 1496 1493 1492 1489 1486 1483 1480 1476 1472 1467
1565 1567 1570 1566 1564 1559 1556 1544 1541 1542 1544 1544 1544 1538 1543 1542 1543 1542 1540 1539 1538 1537 1534 1529 1525 1523 1521 1517 1514 1511 1506 1503 1499 1496 1493 1490 1488 1485 1482 1479 1476 1472 1468 1463
1573 1571 1576 1572 1569 1559 1542 1540 1540 1541 1539 1538 1538 1541 1542 1542 1540 1537 1538 1538 1535 1533 1530 1527 1524 1520 1517 1513 1511 1506 1502 1499 1495 1493 1490 1486 1483 1481 1478 1475 1472 1468 1463 1459
1568 1571 1577 1575 1566 1548 1539 1537 1540 1541 1539 1539 1540 1542 1542 1540 1537 1535 1536 1534 1532 1529 1527 1524 1521 1517 1512 1509 1505 1501 1498 1494 1491 1488 1486 1482 1479 1476 1474 1471 1468 1463 1459 1454
1571 1572 1570 1575 1571 1558 1536 1541 1542 1541 1537 1542 1545 1546 1545 1540 1536 1536 1536 1534 1531 1529 1526 1521 1516 1511 1507 1503 1499 1496 1492 1489 1486 1482 1480 1478 1475 1472 1470 1467 1463 1459 1455 1450
1571 1574 1571 1568 1566 1550 1540 1543 1543 1546 1544 1544 1545 1544 1544 1542 1542 1537 1533 1531 1529 1525 1522 1518 1513 1508 1503 1498 1494 1490 1487 1484 1481 1478 1476 1473 1471 1468 1465 1462 1459 1455 1450 1446
1556 1560 1565 1568 1567 1557 1543 1543 1548 1541 1542 1542 1542 1540 1540 1538 1536 1534 1531 1528 1524 1521 1516 1513 1507 1502 1497 1493 1489 1485 1482 1479 1476 1474 1472 1469 1466 1464 1461 1458 1455 1451 1446 1441
1552 1549 1548 1553 1540 1535 1538 1541 1540 1539 1539 1538 1538 1538 1537 1535 1533 1530 1527 1524 1520 1517 1512 1508 1504 1497 1492 1488 1484 1480 1477 1474 1471 1469 1467 1464 1462 1460 1458 1454 1450 1446 1442 1437
1545 1546 1547 1546 1536 1534 1536 1536 1537 1536 1536 1535 1535 1534 1533 1532 1529 1526 1523 1520 1516 1511 1507 1502 1497 1493 1487 1482 1478 1475 1471 1468 1465 1464 1462 1460 1458 1456 1453 1450 1447 1443 1439 1434
1540 1541 1539 1536 1533 1533 1533 1535 1535 1535 1533 1532 1532 1532 1531 1529 1526 1523 1518 1514 1509 1505 1501 1497 1492 1487 1482 1477 1473 1469 1465 1463 1462 1460 1458 1456 1454 1452 1449 1446 1443 1439 1435 1430
1535 1532 1536 1533 1532 1533 1533 1532 1533 1532 1532 1531 1531 1530 1529 1526 1522 1517 1513 1510 1506 1501 1495 1491 1487 1482 1477 1472 1469 1464 1461 1459 1458 1455 1454 1452 1449 1448 1445 1443 1440 1435 1431 1426
Wind_Speed
6 4 6 7 6 3 1 1 2 3 4 7 3 2 8 10 10 9 7 7 10 13 9 8 11 11 9 8 11 7 8 12 12 8 6 7 8 9 8 10 18 21 24 28
4 8 4 4 3 1 1 2 2 2 1 5 2 5 8 11 13 12 13 13 12 12 10 10 9 9 8 7 8 10 11 12 12 9 12 11 10 8 12 14 22 26 31 31
5 6 2 1 6 4 2 2 4 4 4 3 4 7 6 7 11 13 15 15 15 14 14 12 11 10 8 7 7 7 8 8 6 4 6 7 9 11 12 19 23 28 30 30
8 3 2 2 5 7 1 2 8 7 6 4 3 4 5 4 8 10 11 12 12 11 10 8 6 5 4 4 4 3 1 3 6 11 14 20 14 16 23 21 19 28 30 32
4 5 5 5 4 6 5 8 5 4 6 4 2 6 8 3 7 6 9 10 10 9 8 8 7 6 7 6 6 6 7 10 15 18 23 19 17 15 15 18 22 23 23 29
6 3 4 5 3 2 6 3 1 1 2 4 2 5 7 2 4 7 10 10 9 8 6 6 7 7 8 7 6 9 10 13 18 21 27 25 21 21 22 23 25 24 27 26
3 5 2 7 3 4 8 2 2 2 4 1 1 6 7 5 7 7 7 9 9 8 7 5 4 4 4 4 9 15 21 14 20 34 33 30 27 20 21 24 25 29 28 27
3 4 8 9 5 5 6 6 3 2 2 4 3 2 6 7 7 7 7 7 7 8 8 6 4 5 6 10 16 21 18 13 20 25 22 21 19 20 23 25 31 32 29 27
2 3 3 6 6 4 3 4 1 3 1 3 1 3 7 7 6 6 6 3 4 4 4 6 8 9 9 8 11 16 21 22 20 19 17 21 22 25 31 35 33 24 25 19
2 2 1 1 3 8 4 3 1 2 3 4 3 7 7 9 5 2 3 3 2 3 6 10 13 13 12 13 15 20 21 16 15 14 17 19 26 27 30 27 23 20 16 13
4 3 2 3 2 2 3 2 2 1 2 3 4 5 5 2 3 4 10 11 9 8 11 14 17 16 15 12 11 12 13 14 13 13 18 20 21 20 20 19 17 15 14 12
4 1 2 1 2 3 2 1 1 2 2 2 4 6 4 1 1 5 16 9 7 10 14 16 16 15 12 9 10 12 13 14 17 20 19 18 17 17 17 17 15 13 13 11
1 0 2 3 4 3 5 3 2 1 1 8 4 4 3 3 12 13 12 10 7 13 17 19 17 15 11 11 13 21 19 17 16 19 16 15 16 18 16 16 17 15 16 16
1 2 4 5 6 4 6 7 7 8 5 8 13 18 16 13 14 15 9 7 12 19 18 16 14 12 11 19 19 16 12 15 21 17 17 17 17 15 16 18 15 16 15 16
2 3 4 8 11 13 12 14 12 15 15 11 15 15 15 14 13 12 7 16 22 19 16 16 14 14 18 14 12 12 13 18 21 14 17 12 10 11 14 15 15 15 16 18
2 1 4 4 8 10 12 15 15 13 13 13 15 16 7 10 9 7 17 21 20 14 13 15 17 12 13 13 16 14 17 17 13 16 11 9 11 13 14 14 17 18 18 17
1 1 1 4 9 13 6 4 4 3 4 8 10 8 8 7 12 18 21 18 10 12 15 18 14 16 17 19 16 18 20 14 12 14 10 12 13 13 14 16 17 17 18 18
3 2 1 3 5 3 3 5 9 13 13 8 9 3 6 12 21 25 6 6 9 17 15 17 16 20 22 20 19 20 19 15 15 14 14 13 13 13 15 16 17 18 19 20
2 3 2 2 4 15 12 3 2 2 11 4 3 9 17 25 23 10 8 15 19 13 16 20 21 24 25 22 21 21 19 17 16 17 16 13 13 13 15 16 17 19 20 20
5 4 2 2 4 4 3 4 5 4 8 4 11 20 22 24 12 6 20 17 13 16 18 21 24 25 23 21 19 21 20 19 18 15 12 13 13 13 15 16 18 20 21 21
2 2 4 6 6 8 6 5 1 3 3 14 12 9 11 6 8 17 13 13 15 18 20 22 23 25 24 24 23 21 19 16 13 12 14 14 13 13 14 17 19 22 23 21
3 2 4 3 4 6 2 2 2 5 12 7 7 6 10 11 11 11 14 17 19 20 22 25 27 27 26 25 22 21 18 16 15 15 16 14 12 12 15 18 21 23 22 20
4 5 4 7 6 7 13 11 7 7 7 7 2 6 9 8 11 14 16 19 21 23 25 27 27 28 27 26 24 21 20 17 15 16 16 13 12 13 16 20 22 21 18 18
5 7 4 6 11 14 14 10 5 6 4 3 6 3 5 11 14 17 21 24 24 25 26 25 26 28 29 27 22 18 17 16 16 16 15 13 13 15 17 19 17 17 16 16
10 8 11 12 18 16 7 2 5 7 5 6 4 7 9 12 17 21 24 24 25 25 24 24 26 29 30 26 22 16 20 13 15 15 13 12 12 14 16 15 14 13 13 16
15 12 5 4 5 9 4 7 9 9 5 4 6 8 11 16 21 22 24 25 25 25 25 26 28 28 29 23 20 16 11 16 15 17 10 10 14 12 12 12 13 16 19 18
Wind_Direction
41 82 60 47 35 40 68 259 306 52 75 318 360 60 44 45 65 87 81 109 135 151 169 193 221 233 220 209 180 178 188 220 222 242 274 281 291 301 313 314 310 319 319 318
140 78 76 63 56 8 292 288 73 110 35 295 28 87 79 57 59 63 81 93 113 121 114 100 95 104 116 143 162 194 208 227 238 274 295 304 317 326 316 318 317 316 313 312
86 76 110 326 41 351 61 360 16 314 304 213 230 111 105 72 77 84 82 87 88 93 94 84 85 96 118 152 177 207 236 255 278 337 6 352 337 334 322 322 318 313 312 314
77 73 64 78 62 346 235 13 306 274 250 213 257 161 86 97 98 83 79 77 78 78 78 75 78 96 152 184 206 221 179 55 10 359 351 344 345 333 326 323 319 318 316 317
89 75 45 48 25 352 27 318 307 269 233 238 138 260 103 129 94 71 78 75 74 66 68 70 76 85 93 104 108 76 39 10 354 347 343 342 335 333 329 320 316 317 316 315
94 81 32 12 318 310 324 259 181 163 194 226 68 320 124 50 28 88 82 63 50 45 57 75 90 91 87 80 46 10 1 345 340 344 339 336 337 328 322 319 321 320 319 317
129 65 70 6 305 182 349 252 221 210 205 27 149 275 53 103 90 74 64 50 50 55 65 86 88 78 68 13 339 336 331 343 337 330 327 318 314 322 321 323 322 321 319 318
16 141 14 358 14 343 19 3 29 318 321 315 185 224 132 129 102 73 70 76 71 66 66 61 26 343 332 325 321 324 325 328 312 310 311 314 318 320 322 321 322 321 319 316
357 96 96 57 29 312 39 57 26 122 162 255 295 153 177 167 117 66 69 69 64 53 28 1 343 326 308 311 309 307 303 311 314 313 314 315 319 321 321 321 322 317 315 309
55 190 55 122 250 62 33 120 226 32 340 303 304 290 303 189 225 39 14 320 257 307 324 326 324 324 313 297 298 297 304 316 313 313 315 316 316 318 319 323 322 319 315 309
9 299 117 236 343 333 172 157 72 75 296 279 302 311 75 173 287 309 331 316 281 296 312 318 321 317 314 304 300 311 316 311 311 318 318 318 321 323 324 323 321 318 314 306
31 10 261 11 67 326 314 142 107 294 199 222 322 279 88 158 59 297 319 326 281 296 311 317 320 321 315 306 309 318 320 316 320 318 322 323 326 323 323 321 321 315 312 303
58 273 266 186 175 201 248 198 129 86 229 245 246 267 130 225 292 326 321 316 293 313 317 321 317 316 311 311 314 318 315 315 321 325 324 321 322 316 319 319 315 304 301 292
237 239 266 303 330 323 260 266 255 246 247 265 263 279 297 317 330 321 321 309 318 320 321 321 312 303 300 307 315 309 308 317 323 322 324 320 317 312 327 331 332 330 323 316
325 283 291 289 292 290 285 275 266 249 249 264 273 295 313 327 329 325 307 317 322 323 326 325 313 311 311 304 301 306 318 323 322 317 320 319 328 331 324 319 318 318 316 316
20 298 347 290 299 294 293 271 263 258 255 260 273 283 349 327 326 331 324 318 318 317 329 322 321 316 308 305 310 318 322 316 309 317 314 318 323 325 322 322 322 319 320 321
284 185 359 281 316 315 277 255 168 251 205 279 289 334 332 343 330 324 324 325 329 333 324 328 313 311 309 313 308 315 318 310 310 313 304 313 315 321 323 322 322 322 323 323
136 138 77 288 303 274 46 299 285 290 291 284 276 297 323 322 326 324 342 337 332 323 312 318 314 312 314 307 304 311 318 310 303 305 298 299 312 316 321 321 322 322 322 322
235 140 148 261 265 295 293 79 71 271 293 358 355 337 328 326 323 344 4 317 314 311 314 312 312 309 309 299 301 309 309 303 300 300 293 297 305 311 317 317 319 322 321 322
79 99 254 190 257 266 6 44 325 294 264 49 349 337 322 326 316 318 326 311 319 314 314 315 316 313 308 296 299 299 301 302 297 292 294 292 296 306 311 315 319 322 323 319
144 160 231 242 250 272 326 50 3 283 5 333 337 326 318 313 280 310 318 315 314 313 314 316 318 316 311 305 299 294 299 299 298 299 295 291 291 300 310 315 319 321 320 318
247 226 211 203 257 266 90 311 271 313 311 294 299 316 313 307 308 314 315 317 319 317 320 322 320 318 316 310 300 293 298 300 298 303 300 286 288 301 311 316 319 319 318 314
257 207 274 195 242 282 299 296 275 292 275 289 290 313 310 308 314 319 320 323 320 319 320 321 320 319 321 316 301 290 298 296 297 302 298 287 290 303 313 317 317 320 317 313
249 236 244 278 260 271 298 302 254 275 275 319 312 283 288 306 319 322 322 322 319 319 320 321 323 323 323 321 304 286 290 296 302 303 298 290 296 298 313 315 318 317 316 314
255 272 269 274 274 289 277 325 332 312 297 318 264 287 310 320 320 319 316 316 316 316 318 320 322 322 321 319 306 304 302 315 311 307 296 295 299 308 313 320 316 318 320 317
256 262 234 252 287 278 281 321 304 272 268 271 297 309 312 315 314 314 314 315 315 316 319 320 321 322 322 315 308 310 317 319 317 305 307 302 307 309 317 322 329 319 320 327